Date String (YYYY-MM-DD hh:mm:ss) UTC,Instrument flags,Ambient pressure (hPa),Sample flow (lpm),Bypass flow (lpm),Sample temperature (°C),Ambient temperature (°C),ASC tube jacket temperature (°C),LED temperature (°C),Box temperature (°C),Sample RH (%),Span deviation,Mass concentration (μg/m³),Mass concentration (μg/m³),Mass concentration (μg/m³)
DateTimeUTC,F1_M11,P_M11,Q1_M11,Q2_M11,T1_M11,T2_M11,T3_M11,T4_M11,T5_M11,U1_M11,ZSPAN_M11,X0_M11,X2_M11,X1_M11
2023-03-01 10:00:00,,0815.4,4.99,0.00,22.3,20.7,00.0,31.1,23.8,04.7,0000.0,0002.02,0001.07,0000.69
2023-03-01 10:01:00,,0815.3,5.01,0.00,22.2,20.4,00.0,31.0,23.7,04.7,0000.0,0002.01,0001.07,0000.69
2023-03-01 10:02:00,,0815.4,4.99,0.00,22.1,20.1,00.0,31.0,23.5,04.6,0000.0,0001.84,0001.02,0000.68
2023-03-01 10:03:00,,0815.4,5.00,0.00,22.0,19.9,00.0,31.0,23.3,04.5,0000.0,0001.86,0000.99,0000.66
2023-03-01 10:04:00,,0815.4,5.00,0.00,21.9,19.6,00.0,30.9,23.2,04.2,0000.0,0002.14,0000.97,0000.65
2023-03-01 10:05:00,,0815.5,5.02,0.00,21.8,20.1,00.0,30.8,23.3,04.3,0000.0,0002.28,0000.99,0000.65
2023-03-01 10:06:00,,0815.4,4.99,0.00,22.0,21.4,00.0,30.8,23.7,04.1,0000.0,0002.22,0000.97,0000.65
2023-03-01 10:07:00,,0815.4,4.98,0.00,22.1,22.5,00.0,30.8,24.0,04.1,0000.0,0002.20,0000.96,0000.64
2023-03-01 10:08:00,,0815.4,4.97,0.00,22.2,22.4,00.0,30.9,24.0,04.2,0000.0,0002.26,0000.98,0000.64
2023-03-01 10:09:00,,0815.4,4.99,0.00,22.2,21.9,00.0,30.9,23.9,04.1,0000.0,0002.24,0000.97,0000.64
2023-03-01 10:10:00,,0815.4,4.99,0.00,22.1,21.4,00.0,30.9,23.8,04.1,0000.0,0002.16,0000.94,0000.65
2023-03-01 10:11:00,,0815.4,5.00,0.00,22.1,21.1,00.0,30.9,23.8,04.1,0000.0,0002.17,0000.95,0000.65
2023-03-01 10:12:00,,0815.4,5.00,0.00,22.1,20.8,00.0,30.9,23.7,04.1,0000.0,0002.21,0000.95,0000.64
2023-03-01 10:13:00,,0815.4,4.99,0.00,22.1,20.6,00.0,30.9,23.7,04.1,0000.0,0002.18,0000.94,0000.64
2023-03-01 10:14:00,,0815.4,5.01,0.00,22.1,20.5,00.0,30.9,23.7,03.9,0000.0,0002.13,0000.91,0000.63
2023-03-01 10:15:00,,0815.4,5.00,0.00,22.0,20.4,00.0,30.9,23.6,04.0,0000.0,0001.68,0000.92,0000.64
2023-03-01 10:16:00,,0815.4,5.03,0.00,22.0,20.2,00.0,30.8,23.5,04.1,0000.0,0001.37,0000.87,0000.63
2023-03-01 10:17:00,,0815.5,5.00,0.00,21.9,20.0,00.0,30.8,23.3,04.4,0000.0,0001.28,0000.84,0000.63
2023-03-01 10:18:00,,0815.8,5.03,0.00,21.9,20.6,00.0,30.8,23.5,04.5,0000.0,0001.32,0000.85,0000.62
2023-03-01 10:19:00,,0816.1,5.00,0.00,22.0,21.8,00.0,30.8,23.8,04.6,0000.0,0001.44,0000.87,0000.62
2023-03-01 10:20:00,,0816.1,5.01,0.00,22.1,22.7,00.0,30.8,24.1,04.6,0000.0,0001.66,0000.91,0000.62
2023-03-01 10:21:00,,0815.7,5.00,0.00,22.3,22.9,00.0,30.8,24.2,04.5,0000.0,0001.66,0000.90,0000.61
2023-03-01 10:22:00,,0815.6,4.98,0.00,22.3,22.2,00.0,30.9,24.0,04.6,0000.0,0001.68,0000.90,0000.60
2023-03-01 10:23:00,,0815.7,4.99,0.00,22.2,21.6,00.0,30.9,23.9,04.6,0000.0,0001.70,0000.91,0000.61
2023-03-01 10:24:00,,0815.7,4.99,0.00,22.2,21.0,00.0,30.9,23.8,04.6,0000.0,0001.81,0000.95,0000.62
2023-03-01 10:25:00,,0816.1,5.00,0.00,22.1,20.6,00.0,30.9,23.6,04.7,0000.0,0002.02,0001.00,0000.62
2023-03-01 10:26:00,,0816.1,5.00,0.00,22.0,20.2,00.0,30.9,23.5,04.7,0000.0,0002.13,0001.04,0000.63
2023-03-01 10:27:00,,0816.0,5.01,0.00,22.0,20.0,00.0,30.9,23.4,04.7,0000.0,0002.27,0001.07,0000.64
2023-03-01 10:28:00,,0816.1,5.00,0.00,21.9,19.8,00.0,30.8,23.3,04.7,0000.0,0002.28,0001.09,0000.65
2023-03-01 10:29:00,,0816.1,5.00,0.00,21.8,19.6,00.0,30.8,23.3,04.6,0000.0,0002.27,0001.08,0000.65
2023-03-01 10:30:00,,0816.2,5.01,0.00,21.8,20.0,00.0,30.8,23.3,04.6,0000.0,0002.17,0001.07,0000.66
2023-03-01 10:31:00,,0816.0,4.99,0.00,21.9,21.4,00.0,30.7,23.7,04.6,0000.0,0002.10,0001.07,0000.67
2023-03-01 10:32:00,,0816.0,4.98,0.00,22.0,22.4,00.0,30.7,24.0,04.6,0000.0,0002.17,0001.10,0000.67
2023-03-01 10:33:00,,0816.1,5.01,0.00,22.1,22.3,00.0,30.8,24.0,04.6,0000.0,0002.20,0001.11,0000.68
2023-03-01 10:34:00,,0816.0,5.01,0.00,22.1,21.7,00.0,30.8,23.8,04.5,0000.0,0002.23,0001.11,0000.67
2023-03-01 10:35:00,,0816.1,5.00,0.00,22.0,21.1,00.0,30.8,23.6,04.5,0000.0,0002.10,0001.06,0000.67
2023-03-01 10:36:00,,0816.1,5.00,0.00,22.0,20.6,00.0,30.8,23.5,04.4,0000.0,0001.94,0001.03,0000.65
2023-03-01 10:37:00,,0816.1,5.01,0.00,21.9,20.2,00.0,30.8,23.3,04.4,0000.0,0001.75,0000.96,0000.64
2023-03-01 10:38:00,,0816.2,5.01,0.00,21.8,20.0,00.0,30.8,23.2,04.4,0000.0,0001.58,0000.92,0000.64
2023-03-01 10:39:00,,0816.1,4.99,0.00,21.8,19.7,00.0,30.7,23.2,04.5,0000.0,0001.63,0000.93,0000.63
2023-03-01 10:40:00,,0816.0,5.00,0.00,21.7,19.6,00.0,30.7,23.1,04.5,0000.0,0001.76,0000.97,0000.65
2023-03-01 10:41:00,,0816.0,5.02,0.00,21.7,20.4,00.0,30.7,23.3,04.6,0000.0,0001.71,0000.96,0000.65
2023-03-01 10:42:00,,0816.1,5.03,0.00,21.9,21.7,00.0,30.6,23.6,04.6,0000.0,0001.64,0000.90,0000.64
2023-03-01 10:43:00,,0816.0,5.02,0.00,22.0,22.5,00.0,30.7,23.9,04.5,0000.0,0001.59,0000.86,0000.63
2023-03-01 10:44:00,,0816.2,5.00,0.00,22.0,22.0,00.0,30.7,23.8,04.5,0000.0,0001.61,0000.87,0000.63
2023-03-01 10:45:00,,0816.0,4.99,0.00,22.0,21.4,00.0,30.7,23.6,04.5,0000.0,0001.51,0000.87,0000.64
2023-03-01 10:46:00,,0816.2,5.01,0.00,21.9,20.8,00.0,30.7,23.5,04.6,0000.0,0001.59,0000.91,0000.66
2023-03-01 10:47:00,,0816.1,5.03,0.00,21.9,20.4,00.0,30.7,23.3,04.6,0000.0,0001.61,0000.91,0000.67
2023-03-01 10:48:00,,0816.1,5.00,0.00,21.8,20.0,00.0,30.7,23.2,04.7,0000.0,0001.65,0000.93,0000.68
2023-03-01 10:49:00,,0816.0,5.00,0.00,21.7,19.8,00.0,30.7,23.1,04.7,0000.0,0001.65,0000.92,0000.69
2023-03-01 10:50:00,,0816.1,5.01,0.00,21.7,19.6,00.0,30.6,23.1,04.8,0000.0,0001.65,0000.92,0000.69
2023-03-01 10:51:00,,0816.0,5.00,0.00,21.6,19.6,00.0,30.6,23.1,04.6,0000.0,0001.52,0000.89,0000.68
2023-03-01 10:52:00,,0816.0,5.00,0.00,21.7,20.8,00.0,30.6,23.4,04.4,0000.0,0001.65,0000.91,0000.68
2023-03-01 10:53:00,,0816.0,4.98,0.00,21.8,22.0,00.0,30.6,23.7,04.3,0000.0,0001.60,0000.94,0000.69
2023-03-01 10:54:00,,0815.7,4.97,0.00,21.9,22.4,00.0,30.6,23.8,04.3,0000.0,0001.51,0000.93,0000.70
2023-03-01 10:55:00,,0815.5,5.00,0.00,22.0,21.7,00.0,30.6,23.7,04.3,0000.0,0001.49,0000.94,0000.73
2023-03-01 10:56:00,,0815.5,5.00,0.00,21.9,21.2,00.0,30.6,23.6,04.3,0000.0,0001.45,0000.94,0000.74
2023-03-01 10:57:00,,0815.4,5.01,0.00,21.9,20.7,00.0,30.6,23.4,04.4,0000.0,0001.46,0000.96,0000.76
2023-03-01 10:58:00,,0815.5,5.00,0.00,21.8,20.3,00.0,30.6,23.3,04.4,0000.0,0001.54,0001.02,0000.81
2023-03-01 10:59:00,,0815.4,4.99,0.00,21.7,20.1,00.0,30.6,23.2,04.3,0000.0,0001.57,0001.04,0000.83
